Time,TemperatureF,DewpointF,PressureIn,WindDirection,WindDirectionDegrees,WindSpeedMPH,WindSpeedGustMPH,Humidity,HourlyPrecipIn,Conditions,Clouds,dailyrainin,SoftwareType,DateUTC
2013-08-19 00:00:00,82.0,-99.9,29.98,East,100,9.0,11.0,-999,-99.99,,,-99.99,,2013-08-19 05:00:00,
2013-08-19 00:42:00,82.0,-99.9,29.98,East,100,9.0,11.0,-999,-99.99,,,-99.99,,2013-08-19 05:42:00,
2013-08-19 00:52:00,82.0,-99.9,29.98,East,100,9.0,11.0,-999,-99.99,,,-99.99,,2013-08-19 05:52:00,
2013-08-19 01:00:00,82.0,-99.9,29.98,East,100,9.0,10.0,-999,-99.99,,,-99.99,,2013-08-19 06:00:00,
2013-08-19 01:42:00,82.0,-99.9,29.98,East,100,9.0,10.0,-999,-99.99,,,-99.99,,2013-08-19 06:42:00,
2013-08-19 01:52:00,82.0,-99.9,29.98,East,100,9.0,10.0,-999,-99.99,,,-99.99,,2013-08-19 06:52:00,
2013-08-19 02:00:00,82.0,-99.9,29.98,SE,130,6.0,6.0,-999,-99.99,,,-99.99,,2013-08-19 07:00:00,
2013-08-19 02:42:00,82.0,-99.9,29.98,SE,130,6.0,6.0,-999,-99.99,,,-99.99,,2013-08-19 07:42:00,
2013-08-19 02:52:00,82.0,-99.9,29.98,SE,130,6.0,6.0,-999,-99.99,,,-99.99,,2013-08-19 07:52:00,
2013-08-19 03:00:00,82.0,-99.9,29.97,East,100,6.0,7.0,-999,-99.99,,,-99.99,,2013-08-19 08:00:00,
2013-08-19 03:42:00,82.0,-99.9,29.97,East,100,6.0,7.0,-999,-99.99,,,-99.99,,2013-08-19 08:42:00,
2013-08-19 03:52:00,82.0,-99.9,29.97,East,100,6.0,7.0,-999,-99.99,,,-99.99,,2013-08-19 08:52:00,
2013-08-19 04:00:00,82.0,-99.9,29.96,East,90,8.0,8.0,-999,-99.99,,,-99.99,,2013-08-19 09:00:00,
2013-08-19 04:43:00,82.0,-99.9,29.96,East,90,8.0,8.0,-999,-99.99,,,-99.99,,2013-08-19 09:43:00,
2013-08-19 04:53:00,82.0,-99.9,29.96,East,90,8.0,8.0,-999,-99.99,,,-99.99,,2013-08-19 09:53:00,
2013-08-19 05:00:00,82.0,-99.9,29.96,ENE,70,8.0,10.0,-999,-99.99,,,-99.99,,2013-08-19 10:00:00,
2013-08-19 05:43:00,82.0,-99.9,29.96,ENE,70,8.0,10.0,-999,-99.99,,,-99.99,,2013-08-19 10:43:00,
2013-08-19 05:52:00,82.0,-99.9,29.96,ENE,70,8.0,10.0,-999,-99.99,,,-99.99,,2013-08-19 10:52:00,
2013-08-19 06:00:00,82.0,-99.9,29.96,ENE,70,8.0,10.0,-999,-99.99,,,-99.99,,2013-08-19 11:00:00,
2013-08-19 06:45:00,82.0,-99.9,29.96,ENE,70,8.0,10.0,-999,-99.99,,,-99.99,,2013-08-19 11:45:00,
2013-08-19 06:52:00,82.0,-99.9,29.96,ENE,70,8.0,10.0,-999,-99.99,,,-99.99,,2013-08-19 11:52:00,
2013-08-19 07:00:00,82.0,-99.9,29.98,ENE,60,10.0,11.0,-999,-99.99,,,-99.99,,2013-08-19 12:00:00,
2013-08-19 07:42:00,82.0,-99.9,29.98,ENE,60,10.0,11.0,-999,-99.99,,,-99.99,,2013-08-19 12:42:00,
2013-08-19 07:52:00,82.0,-99.9,29.98,ENE,60,10.0,11.0,-999,-99.99,,,-99.99,,2013-08-19 12:52:00,
2013-08-19 08:00:00,82.0,-99.9,29.99,ENE,60,10.0,13.0,-999,-99.99,,,-99.99,,2013-08-19 13:00:00,
2013-08-19 08:42:00,82.0,-99.9,29.99,ENE,60,10.0,13.0,-999,-99.99,,,-99.99,,2013-08-19 13:42:00,
2013-08-19 08:52:00,82.0,-99.9,29.99,ENE,60,10.0,13.0,-999,-99.99,,,-99.99,,2013-08-19 13:52:00,
2013-08-19 09:00:00,82.0,-99.9,30.00,ENE,60,15.0,15.0,-999,-99.99,,,-99.99,,2013-08-19 14:00:00,
2013-08-19 09:42:00,82.0,-99.9,30.00,ENE,60,15.0,15.0,-999,-99.99,,,-99.99,,2013-08-19 14:42:00,
2013-08-19 09:52:00,82.0,-99.9,30.00,ENE,60,15.0,15.0,-999,-99.99,,,-99.99,,2013-08-19 14:52:00,
2013-08-19 10:00:00,82.0,-99.9,30.02,ENE,60,11.0,13.0,-999,-99.99,,,-99.99,,2013-08-19 15:00:00,
2013-08-19 10:44:00,82.0,-99.9,30.02,ENE,60,11.0,13.0,-999,-99.99,,,-99.99,,2013-08-19 15:44:00,
2013-08-19 10:54:00,82.0,-99.9,30.02,ENE,60,11.0,13.0,-999,-99.99,,,-99.99,,2013-08-19 15:54:00,
2013-08-19 11:00:00,83.0,-99.9,30.03,ENE,70,13.0,15.0,-999,-99.99,,,-99.99,,2013-08-19 16:00:00,
2013-08-19 11:47:00,83.0,-99.9,30.03,ENE,70,13.0,15.0,-999,-99.99,,,-99.99,,2013-08-19 16:47:00,
2013-08-19 12:00:00,83.0,-99.9,30.03,ENE,70,10.0,13.0,-999,-99.99,,,-99.99,,2013-08-19 17:00:00,
2013-08-19 12:49:00,83.0,-99.9,30.03,ENE,70,10.0,13.0,-999,-99.99,,,-99.99,,2013-08-19 17:49:00,
2013-08-19 12:57:00,83.0,-99.9,30.03,ENE,70,10.0,13.0,-999,-99.99,,,-99.99,,2013-08-19 17:57:00,
2013-08-19 13:00:00,-999.0,-99.9,30.01,ENE,60,15.0,16.0,-999,-99.99,,,-99.99,,2013-08-19 18:00:00,
2013-08-19 13:50:00,-999.0,-99.9,30.01,ENE,60,15.0,16.0,-999,-99.99,,,-99.99,,2013-08-19 18:50:00,
2013-08-19 14:00:00,83.0,-99.9,30.00,ENE,70,11.0,13.0,-999,-99.99,,,-99.99,,2013-08-19 19:00:00,
2013-08-19 14:30:00,-999.0,-99.9,30.00,ENE,70,11.0,13.0,-999,-99.99,,,-99.99,,2013-08-19 19:30:00,
2013-08-19 14:50:00,83.0,-99.9,30.00,ENE,70,11.0,13.0,-999,-99.99,,,-99.99,,2013-08-19 19:50:00,
2013-08-19 14:59:00,83.0,-99.9,30.00,ENE,70,11.0,13.0,-999,-99.99,,,-99.99,,2013-08-19 19:59:00,
2013-08-19 15:00:00,-999.0,-99.9,-100.00,ENE,70,14.0,15.0,-999,-99.99,,,-99.99,,2013-08-19 20:00:00,
2013-08-19 15:50:00,83.0,-99.9,29.98,ENE,70,14.0,15.0,-999,-99.99,,,-99.99,,2013-08-19 20:50:00,
2013-08-19 16:00:00,83.0,-99.9,29.95,ENE,60,14.0,15.0,-999,-99.99,,,-99.99,,2013-08-19 21:00:00,
2013-08-19 16:46:00,83.0,-99.9,29.95,ENE,60,14.0,15.0,-999,-99.99,,,-99.99,,2013-08-19 21:46:00,
2013-08-19 16:55:00,83.0,-99.9,29.95,ENE,60,14.0,15.0,-999,-99.99,,,-99.99,,2013-08-19 21:55:00,
2013-08-19 17:00:00,83.0,-99.9,29.94,ENE,70,14.0,15.0,-999,-99.99,,,-99.99,,2013-08-19 22:00:00,
2013-08-19 17:25:00,83.0,-99.9,29.94,ENE,70,14.0,15.0,-999,-99.99,,,-99.99,,2013-08-19 22:25:00,
2013-08-19 17:35:00,83.0,-99.9,29.94,ENE,70,14.0,15.0,-999,-99.99,,,-99.99,,2013-08-19 22:35:00,
2013-08-19 17:44:00,83.0,-99.9,29.94,ENE,70,14.0,15.0,-999,-99.99,,,-99.99,,2013-08-19 22:44:00,
2013-08-19 17:55:00,83.0,-99.9,29.94,ENE,70,14.0,15.0,-999,-99.99,,,-99.99,,2013-08-19 22:55:00,
2013-08-19 19:00:00,83.0,-99.9,29.93,East,80,17.0,18.0,-999,-99.99,,,-99.99,,2013-08-20 00:00:00,
2013-08-19 19:24:00,83.0,-99.9,29.93,East,80,17.0,18.0,-999,-99.99,,,-99.99,,2013-08-20 00:24:00,
2013-08-19 19:32:00,83.0,-99.9,29.93,East,80,17.0,18.0,-999,-99.99,,,-99.99,,2013-08-20 00:32:00,
2013-08-19 19:42:00,83.0,-99.9,29.93,East,80,17.0,18.0,-999,-99.99,,,-99.99,,2013-08-20 00:42:00,
2013-08-19 19:53:00,83.0,-99.9,29.93,East,80,17.0,18.0,-999,-99.99,,,-99.99,,2013-08-20 00:53:00,
2013-08-19 20:00:00,83.0,-99.9,29.93,East,80,15.0,16.0,-999,-99.99,,,-99.99,,2013-08-20 01:00:00,
2013-08-19 20:22:00,83.0,-99.9,29.93,East,80,15.0,16.0,-999,-99.99,,,-99.99,,2013-08-20 01:22:00,
2013-08-19 20:32:00,83.0,-99.9,29.93,East,80,15.0,16.0,-999,-99.99,,,-99.99,,2013-08-20 01:32:00,
2013-08-19 20:42:00,83.0,-99.9,29.93,East,80,15.0,16.0,-999,-99.99,,,-99.99,,2013-08-20 01:42:00,
2013-08-19 20:52:00,83.0,-99.9,29.93,East,80,15.0,16.0,-999,-99.99,,,-99.99,,2013-08-20 01:52:00,
2013-08-19 21:00:00,83.0,-99.9,29.94,East,80,16.0,17.0,-999,-99.99,,,-99.99,,2013-08-20 02:00:00,
2013-08-19 21:21:00,83.0,-99.9,29.94,East,80,16.0,17.0,-999,-99.99,,,-99.99,,2013-08-20 02:21:00,
2013-08-19 21:33:00,83.0,-99.9,29.94,East,80,16.0,17.0,-999,-99.99,,,-99.99,,2013-08-20 02:33:00,
2013-08-19 21:42:00,83.0,-99.9,29.94,East,80,16.0,17.0,-999,-99.99,,,-99.99,,2013-08-20 02:42:00,
2013-08-19 21:52:00,83.0,-99.9,29.94,East,80,16.0,17.0,-999,-99.99,,,-99.99,,2013-08-20 02:52:00,
2013-08-19 22:00:00,83.0,-99.9,29.95,East,90,18.0,20.0,-999,-99.99,,,-99.99,,2013-08-20 03:00:00,
2013-08-19 22:22:00,83.0,-99.9,29.95,East,90,18.0,20.0,-999,-99.99,,,-99.99,,2013-08-20 03:22:00,
2013-08-19 22:33:00,83.0,-99.9,29.95,East,90,18.0,20.0,-999,-99.99,,,-99.99,,2013-08-20 03:33:00,
2013-08-19 22:43:00,83.0,-99.9,29.95,East,90,18.0,20.0,-999,-99.99,,,-99.99,,2013-08-20 03:43:00,
2013-08-19 22:54:00,83.0,-99.9,29.95,East,90,18.0,20.0,-999,-99.99,,,-99.99,,2013-08-20 03:54:00,
2013-08-19 23:00:00,82.0,-99.9,29.95,East,90,16.0,18.0,-999,-99.99,,,-99.99,,2013-08-20 04:00:00,
2013-08-19 23:23:00,82.0,-99.9,29.95,East,90,16.0,18.0,-999,-99.99,,,-99.99,,2013-08-20 04:23:00,
2013-08-19 23:33:00,82.0,-99.9,29.95,East,90,16.0,18.0,-999,-99.99,,,-99.99,,2013-08-20 04:33:00,
2013-08-19 23:43:00,82.0,-99.9,29.95,East,90,16.0,18.0,-999,-99.99,,,-99.99,,2013-08-20 04:43:00,
2013-08-19 23:54:00,82.0,-99.9,29.95,East,90,16.0,18.0,-999,-99.99,,,-99.99,,2013-08-20 04:54:00,